Вернуться в каталог

COSMOS 2386

АктивенНавигацияPO
NORAD 27057·PAYLOAD·🇷🇺 Russia

Запущен Dec 28, 2001 с Plesetsk Cosmodrome

Loading…

Ближайшие Пролёты (ближайшие 24 часа)

TLE

СвежийSource: Space-Track

Эпоха: Sep 14, 2026, 03:32 UTC

1 27057U 01058C   26257.14761293  .00000034  00000-0  13513-3 0  9993
2 27057  82.5476 157.2389 0000841  75.1322 284.9862 12.61617464137720

Отслеживайте COSMOS 2386 в реальном времени с AllMySat

Download on the App Store